Regional Weather Roundup
Issued by NWS Huntsville, AL

Home | Current Version | Previous Version | Text Only | Print | Product List | Glossary On
Versions: 1 2 3 4 5 6 7 8 9 10 11 12 13 14 15 16 17 18 19 20 21 22 23 24 25 26 27
536
ASUS44 KHUN 221810
RWRHUN

WEATHER ROUNDUP FOR THE TENNESSEE VALLEY
NATIONAL WEATHER SERVICE HUNTSVILLE AL
100 PM CDT FRI MAY 22 2015

ALZ001>004-221900-
NORTHWEST ALABAMA

CITY           SKY/WX    TMP DP  RH WIND       PRES   REMARKS
COURTLAND HCN    N/A     66 N/A N/A NE6         N/A
RUSSELLVILLE     N/A     66 N/A N/A MISG        N/A
SHOALS AIRPORT SUNNY     69  46  43 N7        30.27F
6HR MIN TEMP:  52; 6HR MAX TEMP:  70;

SHOALS TVA RES   N/A     66 N/A N/A MISG        N/A
$$

ALZ005>007-016-221900-
NORTH CENTRAL ALABAMA

CITY           SKY/WX    TMP DP  RH WIND       PRES   REMARKS
CULLMAN AG STN   N/A     66 N/A N/A NE8         N/A
DECATUR AP     NOT AVBL
HUNTSVILLE AP  MOSUNNY   72  47  40 VRB3      30.25F
6HR MIN TEMP:  50; 6HR MAX TEMP:  73;

MERIDIANVILLE  SUNNY     68  41  37 NE3       30.26S
REDSTONE ARSN  MOSUNNY   68  48  48 E5        30.24F
VINEMONT AP    FAIR      67  50  53 N5        30.26F
$$

ALZ008>010-221900-
NORTHEAST ALABAMA

CITY           SKY/WX    TMP DP  RH WIND       PRES   REMARKS
ALBERTVILLE    SUNNY     70  54  56 E3        30.23F
FORT PAYNE     SUNNY     68  41  37 NE5       30.23F
SCOTTSBORO HCN   N/A     68 N/A N/A MISG        N/A
VALLEY HEAD      N/A     68 N/A N/A MISG        N/A
$$

TNZ076-096-097-221900-
SOUTHEASTERN MIDDLE TENNESSEE

CITY           SKY/WX    TMP DP  RH WIND       PRES   REMARKS
TULLAHOMA      SUNNY     66  43  42 NE7       30.28S
WINCHESTER     SUNNY     70  46  43 VRB6      30.26S
$$

...SURROUNDING SITES...

CITY           SKY/WX    TMP DP  RH WIND       PRES   REMARKS
ATLANTA        MOSUNNY   73  51  46 VRB7      30.21F
ANNISTON       SUNNY     71  50  47 CALM      30.22F
BIRMINGHAM     MOSUNNY   73  48  41 N8        30.25R
CHATTANOOGA    MOSUNNY   71  45  39 N14       30.25F
CORINTH        FAIR      70  48  46 E7        30.27S
DALTON         SUNNY     68  50  52 W5        30.23F
GADSDEN        SUNNY    N/A N/A N/A NE5       30.22F
GOLDEN TRNGL   SUNNY     70  52  52 N9        30.24F
HALEYVILLE     FAIR      69  50  50 CALM      30.28S
JACKSON TN     SUNNY     69  45  41 CALM      30.28F
LEWISBURG      FAIR      68  43  40 NE7       30.26F
MEMPHIS        MOSUNNY   70  45  40 CALM      30.28F
NASHVILLE      MOSUNNY   71  44  37 NE5       30.28F
OXFORD MS      FAIR      66  48  52 NE6       30.29S
ROME           SUNNY     71  50  47 N5        30.22F
SAVANNAH       SUNNY     70  32  24 CALM      30.27F
TUPELO         SUNNY     69  47  45 NE7       30.26F
TUSCALOOSA     SUNNY     72  47  40 VRB6      30.23F
$$

...GULF COAST WEATHER...

CITY           SKY/WX    TMP DP  RH WIND       PRES   REMARKS
GULFPORT       MOSUNNY   78  61  55 CALM      30.16F
PASCAGOULA     PTSUNNY   76  60  57 N7        30.17S
MOBILE         PTSUNNY   77  59  53 VRB7      30.18F
GULF SHORES    CLEAR     78  60  53 N3        30.15F
PENSACOLA      PTSUNNY   81  57  43 VRB5      30.15F
DESTIN         SUNNY     80  54  40 N9        30.15F
PANAMA CITY    SUNNY     83  62  48 VRB6      30.13F
APPALACHICOLA  MOSUNNY   84  65  52 VRB6      30.13F
$$




USA.gov is the U.S. government's official web portal to all federal, state and local government web resources and services.